Weather observations for the past three days for
Lorain / Elyria, Lorain County Regional Airport
Imperial (Metric)
Date Time (edt) Wind (mph) Vis. (mi.) Weather Sky Cond. Temperature (ºF) Relative Humidity Wind Chill (°F) Heat Index (°F) Pressure Precipitation (in)
Air Dwpt 6 hour altimeter (in) sea level (mb) 1 hr 3 hr 6 hr
Max. Min.
24 10:53 W 14 10.00 Fair CLR 79 66.9 67% 81 30.1 1018.5
24 09:53 W 10 10.00 Fair CLR 75.9 66 72% 77 30.1 1018.7
24 08:53 W 9 10.00 Fair CLR 73 66.9 81% 30.09 1018.4
24 07:53 SW 9 10.00 Fair CLR 71.1 66 71.1 66 84% 30.08 1018.1
24 06:53 SW 6 8.00 Fair CLR 66.9 64 91% 30.07 1017.8
24 05:53 SW 6 8.00 Fair CLR 66 64 93% 30.06 1017.3
24 04:53 SW 7 8.00 Fair CLR 66 64.9 96% 30.05 1017.2
24 03:53 SW 6 9.00 Fair CLR 66.9 64.9 93% 30.06 1017.2
24 02:53 SW 6 10.00 Fair CLR 68 66 93% 30.06 1017.3
24 01:53 SW 7 10.00 Fair CLR 69.1 66.9 75.9 69.1 93% 30.05 1017.1
24 00:53 SW 8 10.00 Fair CLR 70 66.9 90% 30.07 1017.6
23 23:53 S 7 10.00 Fair CLR 72 68 87% 30.08 1018.0
23 22:53 S 7 10.00 Fair CLR 73 68 84% 30.07 1017.8
23 21:53 S 5 10.00 Fair CLR 72 68 87% 30.06 1017.4
23 20:53 S 6 10.00 Fair CLR 73 68 84% 30.04 1016.6
23 19:53 SE 6 10.00 Fair CLR 75.9 66.9 84.9 75 74% 77 30.03 1016.5 0.02
23 18:53 S 8 10.00 Fair CLR 78.1 64.9 64% 80 30.03 1016.6
23 17:53 E 8 10.00 Fair CLR 78.1 66.9 69% 80 30.04 1016.6
23 16:53 SE 6 10.00 A Few Clouds FEW055 77 68 74% 79 30.05 1017.0 0.02 0.02
23 15:53 NW 3 7.00 Light Rain FEW045 SCT060 OVC100 75 66 74% 76 30.06 1017.4
23 14:53 NE 12 10.00 A Few Clouds FEW043 79 69.1 72% 82 30.05 1017.1
23 13:53 Calm 10.00 Mostly Cloudy FEW060 BKN090 82.9 64.9 82.9 66.9 55% 85 30.06 1017.1
23 12:53 Vrbl 3 10.00 Mostly Cloudy SCT036 BKN090 82 66 58% 84 30.07 1017.5
23 11:53 W 5 10.00 Mostly Cloudy SCT038 BKN090 80.1 64 58% 82 30.07 1017.8
23 10:53 SW 8 10.00 A Few Clouds FEW070 78.1 66.9 69% 80 30.08 1018.0
23 09:53 SW 7 10.00 Fair CLR 75 66.9 76% 76 30.07 1017.9
23 08:53 Calm 8.00 Partly Cloudy SCT090 70 64.9 84% 30.07 1017.8
23 07:53 S 8 6.00 Fog/Mist CLR 66.9 64 66.9 61 91% 30.06 1017.5
23 06:53 Calm 3.00 Fog/Mist CLR 62.1 61 96% 30.05 1017.1
23 05:53 Calm 4.00 Fog/Mist CLR 64 62.1 93% 30.04 1016.7
23 04:53 S 5 6.00 Fog/Mist CLR 63 61 93% 30.04 1016.8
23 03:53 SW 3 0.50 Fog VV004 64.9 64 97% 30.04 1016.7
23 02:53 Calm 7.00 Mostly Cloudy FEW039 SCT060 BKN095 66 64 93% 30.04 1016.7
23 01:53 S 5 7.00 A Few Clouds FEW040 66 64.9 73 66 96% 30.04 1016.6
23 00:53 Calm 10.00 Overcast FEW048 OVC060 68 66 93% 30.03 1016.5
22 23:53 Calm 10.00 Overcast SCT050 OVC060 68 66 93% 30.04 1016.6
22 22:53 W 3 10.00 Overcast SCT046 BKN060 OVC110 68 64.9 90% 30.03 1016.3
22 21:53 Calm 10.00 Overcast SCT055 OVC100 69.1 66 90% 30.02 1016.2
22 20:53 S 3 10.00 Partly Cloudy SCT100 70 66 87% 30 1015.5
22 19:53 Calm 10.00 Fair CLR 73 64.9 78.1 71.1 76% 30 1015.3 0.01
22 18:53 N 7 10.00 Overcast BKN080 OVC090 73 66 79% 30 1015.3
22 17:53 NW 6 10.00 Light Rain BKN080 OVC100 73 66 79% 30 1015.5
22 16:53 NW 6 10.00 Light Rain OVC085 71.1 66.9 87% 30.02 1016.1 0.01 0.01
22 15:53 NW 7 10.00 Light Rain SCT070 OVC100 73.9 66 76% 30.03 1016.4
22 14:53 N 5 10.00 Overcast BKN095 OVC120 77 62.1 60% 79 30.03 1016.5
22 13:53 N 6 10.00 Overcast OVC095 77 63 80.1 66 62% 79 30.03 1016.5
22 12:53 N 8 10.00 Overcast OVC100 77 64.9 66% 79 30.03 1016.5
22 11:53 N 6 10.00 Mostly Cloudy BKN100 78.1 63 60% 80 30.04 1016.7
22 10:53 Calm 10.00 Overcast OVC110 78.1 63 60% 80 30.05 1017.1
22 09:53 E 3 10.00 Overcast OVC110 73.9 63 69% 30.06 1017.2
22 08:53 Calm 10.00 Fair CLR 70 64 82% 30.05 1017.1
22 07:53 Calm 10.00 Fair CLR 66 62.1 66 61 87% 30.04 1016.8
22 06:53 Calm 9.00 Fair CLR 62.1 59 90% 30.05 1017.0
22 05:53 S 3 10.00 Fair CLR 62.1 60.1 93% 30.04 1016.8
22 04:53 Calm 10.00 Fair CLR 63 59 87% 30.04 1016.8
22 03:53 Calm 10.00 Fair CLR 63 60.1 90% 30.06 1017.3
22 02:53 W 3 10.00 Fair CLR 61 57.9 90% 30.08 1017.9
22 01:53 Calm 10.00 Fair CLR 63 57.9 77 62.1 84% 30.08 1018.0
22 00:53 Calm 10.00 Fair CLR 62.1 57.9 86% 30.1 1018.7
21 23:53 Calm 10.00 Fair CLR 63 57.9 84% 30.09 1018.4
21 22:53 Calm 10.00 Fair CLR 66 59 78% 30.1 1018.8
21 21:53 Calm 10.00 Fair CLR 68 57.9 70% 30.09 1018.4
21 20:53 NE 3 10.00 Fair CLR 73 57 57% 30.08 1018.1
21 19:53 NE 7 10.00 Fair CLR 77 57.9 82.9 77 52% 79 30.07 1017.8
21 18:53 NE 8 10.00 Fair CLR 79 57.9 49% 80 30.07 1017.9
21 17:53 N 7 10.00 Fair CLR 81 57.9 45% 81 30.08 1018.2
21 16:53 Calm 10.00 Fair CLR 82 59 46% 82 30.09 1018.4
21 15:53 N 5 10.00 Fair CLR 81 59 47% 81 30.1 1019.0
21 14:53 N 3 10.00 Fair CLR 81 57.9 45% 81 30.11 1019.3
21 13:53 Vrbl 5 10.00 Fair CLR 81 57.9 82 62.1 45% 81 30.11 1019.3
21 12:53 Vrbl 3 10.00 Partly Cloudy SCT050 79 57.9 49% 80 30.12 1019.5
21 11:53 Vrbl 5 10.00 A Few Clouds FEW048 79 57.9 49% 80 30.12 1019.5
Date Time (edt) Wind (mph) Vis. (mi.) Weather Sky Cond. Air Dwpt Max. Min. Relative Humidity Wind Chill (°F) Heat Index (°F) altimeter (in) sea level (mb) 1 hr 3 hr 6 hr
6 hour
Temperature (ºF) Pressure Precipitation (in)